DW8868 Weather Reports


time (UTC)temp
F
wind
direction
speed
knots
gust
knots
rain 1hr
in
rain 24hr
in
rain mn
in
humidity
%
barometer
mb
20260507162334 59 89 0.9 1.7 0.00 0.04 0.04 10 1011.4
20260507161832 59 89 0.9 0.9 0.00 0.04 0.04 10 1011.6
20260507161328 58 77 0.9 0.9 0.00 0.04 0.04 10 1011.8
20260507160825 57 121 0.9 0.9 0.00 0.04 0.04 10 1011.7
20260507160321 57 15 3.5 5.2 0.00 0.04 0.04 10 1011.7
20260507155818 57 111 0.0 0.0 0.00 0.04 0.04 10 1011.8
20260507155313 57 88 0.0 0.9 0.00 0.04 0.04 10 1011.8
20260507154810 57 69 0.9 0.9 0.00 0.04 0.04 10 1012.0
20260507154307 56 69 0.0 0.0 0.00 0.04 0.04 10 1011.8
20260507153804 56 112 1.7 2.6 0.00 0.04 0.04 10 1012.1
20260507153300 56 150 4.3 5.2 0.00 0.04 0.04 10 1011.7
20260507152757 56 63 1.7 2.6 0.00 0.04 0.04 10 1012.1
20260507152253 56 86 1.7 1.7 0.00 0.04 0.04 10 1012.3
20260507151749 56 43 2.6 2.6 0.00 0.04 0.04 10 1012.0
20260507151246 56 7 2.6 2.6 0.00 0.04 0.04 10 1012.1
20260507150743 56 59 1.7 2.6 0.00 0.04 0.04 10 1012.3
20260507150240 55 48 1.7 2.6 0.00 0.04 0.04 10 1012.3
20260507145736 55 39 1.7 2.6 0.00 0.04 0.04 10 1012.5
20260507145232 55 100 0.0 0.0 0.00 0.04 0.04 10 1012.3
20260507144729 55 81 0.0 0.0 0.00 0.04 0.04 10 1012.4
20260507144227 55 89 0.0 0.9 0.00 0.04 0.04 10 1012.6
20260507143723 55 63 0.9 1.7 0.00 0.04 0.04 10 1012.5
20260507143220 55 51 1.7 1.7 0.00 0.04 0.04 10 1012.7
20260507142716 54 87 0.0 0.9 0.00 0.04 0.04 10 1012.6
20260507142213 54 55 1.7 1.7 0.00 0.04 0.04 10 1012.7
20260507141709 54 75 0.9 0.9 0.00 0.04 0.04 10 1012.8
20260507141207 54 77 1.7 2.6 0.00 0.04 0.04 10 1012.7
20260507140702 54 55 3.5 5.2 0.00 0.04 0.04 10 1012.9
20260507140200 54 22 2.6 4.3 0.00 0.04 0.04 10 1012.8
20260507135657 54 51 0.9 1.7 0.00 0.04 0.04 10 1012.7
20260507135154 54 56 0.9 0.9 0.00 0.04 0.04 10 1012.9
20260507134650 54 35 1.7 2.6 0.00 0.04 0.04 10 1013.1
20260507134147 54 31 7.0 8.7 0.00 0.04 0.04 10 1013.2
20260507133643 54 73 1.7 2.6 0.00 0.04 0.04 10 1013.1
20260507133140 54 24 2.6 4.3 0.00 0.04 0.04 10 1012.9
20260507132638 54 25 2.6 4.3 0.00 0.04 0.04 10 1012.9
20260507132133 54 27 3.5 4.3 0.00 0.04 0.04 10 1012.9
20260507131631 54 67 2.6 2.6 0.00 0.04 0.04 10 1013.0
20260507131128 55 76 2.6 2.6 0.00 0.04 0.04 10 1012.9
20260507130624 55 56 2.6 4.3 0.00 0.04 0.04 10 1012.9
20260507130123 55 48 4.3 5.2 0.00 0.04 0.04 10 1013.0
20260507125621 55 77 1.7 2.6 0.00 0.04 0.04 10 1012.7
20260507125118 54 21 2.6 4.3 0.00 0.04 0.04 10 1012.7
20260507124614 55 70 0.9 1.7 0.00 0.04 0.04 10 1012.7
20260507124112 55 42 0.9 1.7 0.00 0.04 0.04 10 1012.8
20260507123610 54 88 0.0 0.0 0.00 0.04 0.04 10 1012.9
20260507123107 54 86 0.0 0.0 0.00 0.04 0.04 10 1012.9
20260507122602 54 50 0.0 0.9 0.00 0.04 0.04 10 1013.0
20260507122058 54 60 1.7 1.7 0.00 0.04 0.04 10 1012.6
20260507121554 54 61 0.9 0.9 0.00 0.04 0.04 10 1012.7
20260507121050 54 339 1.7 1.7 0.00 0.04 0.04 10 1012.9
20260507120546 54 4 4.3 5.2 0.00 0.04 0.04 10 1012.6
20260507120043 54 67 0.9 1.7 0.00 0.04 0.04 10 1012.8
20260507115540 55 75 0.9 1.7 0.00 0.04 0.04 10 1012.7
20260507115035 55 351 2.6 2.6 0.00 0.04 0.04 10 1012.8
20260507114531 55 25 2.6 2.6 0.00 0.04 0.04 10 1012.4
20260507114029 55 47 2.6 2.6 0.00 0.04 0.04 10 1012.5
20260507113526 55 48 4.3 5.2 0.00 0.04 0.04 10 1012.5
20260507113024 55 7 1.7 2.6 0.00 0.04 0.04 10 1012.3
20260507112521 55 85 2.6 4.3 0.00 0.04 0.04 10 1012.4
20260507112018 55 65 1.7 2.6 0.00 0.04 0.04 10 1012.3
20260507111515 55 61 0.9 1.7 0.00 0.04 0.04 10 1012.5
20260507111011 55 64 1.7 1.7 0.00 0.04 0.04 10 1012.1
20260507110508 55 25 3.5 4.3 0.00 0.04 0.04 10 1012.4
20260507110005 55 87 1.7 1.7 0.00 0.04 0.04 10 1012.0
20260507105501 55 81 0.9 1.7 0.00 0.04 0.04 10 1012.3
20260507104957 55 78 1.7 1.7 0.00 0.04 0.04 10 1012.1
20260507104455 55 75 1.7 1.7 0.00 0.04 0.04 10 1012.1
20260507103950 55 84 0.0 0.9 0.00 0.04 0.04 10 1011.9
20260507103447 55 60 2.6 4.3 0.00 0.04 0.04 10 1012.1
20260507102943 55 88 0.0 0.0 0.00 0.04 0.04 10 1012.0
20260507102440 55 45 1.7 2.6 0.00 0.04 0.04 10 1012.0
20260507101937 55 45 1.7 1.7 0.00 0.04 0.04 10 1011.9
20260507101432 55 26 0.9 1.7 0.00 0.04 0.04 10 1011.8
20260507100928 55 36 2.6 2.6 0.00 0.04 0.04 10 1011.8
20260507100426 55 82 1.7 1.7 0.00 0.04 0.04 10 1011.8
20260507095924 55 20 1.7 2.6 0.00 0.04 0.04 10 1011.9
20260507095421 55 29 3.5 5.2 0.00 0.04 0.04 10 1011.8
20260507094918 55 81 0.0 1.7 0.00 0.04 0.04 10 1011.9
20260507094414 55 80 0.0 0.9 0.00 0.04 0.04 10 1011.8
20260507093911 55 84 0.0 0.9 0.00 0.04 0.04 10 1011.8
20260507093409 55 96 0.0 0.0 0.00 0.04 0.04 10 1011.6
20260507092908 55 73 0.9 0.9 0.00 0.04 0.04 10 1011.8
20260507092403 55 102 0.9 0.9 0.00 0.04 0.04 10 1011.6
20260507091900 55 54 1.7 1.7 0.00 0.04 0.04 10 1011.3
20260507091356 55 69 0.9 0.9 0.00 0.04 0.04 10 1011.3
20260507090852 55 346 3.5 5.2 0.00 0.04 0.04 10 1011.4
20260507090349 55 48 0.9 1.7 0.00 0.04 0.04 10 1011.4
20260507085846 55 26 5.2 7.0 0.00 0.04 0.04 10 1011.3
20260507085342 55 82 0.9 0.9 0.00 0.04 0.04 10 1011.2
20260507084840 55 73 0.0 0.9 0.00 0.04 0.04 10 1011.6
20260507084336 55 91 0.0 0.0 0.00 0.04 0.04 10 1011.2
20260507083834 55 76 0.9 0.9 0.00 0.04 0.04 10 1011.4
20260507083330 55 72 0.9 0.9 0.00 0.04 0.04 10 1011.4
20260507082826 56 87 0.0 0.9 0.00 0.04 0.04 10 1011.4
20260507082322 55 15 2.6 4.3 0.00 0.04 0.04 10 1011.6
20260507081820 55 23 2.6 4.3 0.00 0.04 0.04 10 1011.5
20260507081315 55 68 1.7 1.7 0.00 0.04 0.04 10 1011.2
20260507080812 55 101 0.0 0.0 0.00 0.04 0.04 10 1011.1
20260507080308 55 11 2.6 4.3 0.00 0.04 0.04 10 1010.9
20260507075803 55 301 2.6 4.3 0.00 0.04 0.04 10 1010.6
20260507075300 55 59 2.6 5.2 0.00 0.04 0.04 10 1010.8
20260507074756 55 66 0.9 1.7 0.00 0.04 0.04 10 1010.7
20260507074255 55 28 2.6 2.6 0.00 0.04 0.04 10 1010.8
20260507073751 55 93 0.0 0.9 0.00 0.04 0.04 10 1010.8
20260507073248 55 29 1.7 2.6 0.00 0.04 0.04 10 1010.8
20260507072746 55 83 0.9 0.9 0.00 0.04 0.04 10 1010.6
20260507072243 55 85 0.9 1.7 0.00 0.04 0.04 10 1010.8
20260507071740 55 57 1.7 1.7 0.00 0.04 0.04 10 1010.7
20260507071236 55 7 6.1 7.0 0.00 0.04 0.04 10 1010.7
20260507070733 55 65 0.9 1.7 0.00 0.04 0.04 10 1010.9
20260507070230 55 19 4.3 6.1 0.00 0.04 0.04 10 1010.8
20260507065727 55 21 1.7 2.6 0.00 0.04 0.04 10 1010.7
20260507065224 55 39 2.6 2.6 0.00 0.04 0.04 10 1010.7
20260507064721 55 31 1.7 2.6 0.00 0.04 0.04 10 1010.8
20260507064220 55 67 1.7 1.7 0.00 0.04 0.04 10 1010.7
20260507063717 55 38 4.3 5.2 0.00 0.04 0.04 10 1010.8
20260507063214 55 61 2.6 2.6 0.00 0.04 0.04 10 1010.7
20260507062710 55 59 3.5 5.2 0.00 0.04 0.04 10 1011.0
20260507062208 55 51 0.9 1.7 0.00 0.04 0.04 10 1011.1
20260507061706 55 86 0.0 0.0 0.00 0.04 0.04 10 1011.0
20260507061204 55 21 4.3 6.1 0.00 0.04 0.04 10 1010.6
20260507060702 55 25 1.7 1.7 0.00 0.04 0.04 10 1010.6
20260507060157 55 41 2.6 2.6 0.00 0.04 0.04 10 1010.6
20260507055654 55 74 0.0 0.9 0.00 0.04 0.04 10 1010.7
20260507055149 55 345 5.2 7.0 0.00 0.04 0.04 10 1010.9
20260507054645 55 70 0.9 1.7 0.07 0.04 0.04 10 1010.9
20260507054142 55 60 1.7 1.7 0.07 0.04 0.04 10 1011.0
20260507053640 56 30 0.0 0.9 0.00 0.03 0.03 10 1010.8
20260507053138 56 57 4.3 5.2 0.00 0.03 0.03 10 1010.7
20260507052637 56 81 1.7 1.7 0.05 0.03 0.03 10 1010.9
20260507052132 56 57 0.9 1.7 0.05 0.03 0.03 10 1010.8
20260507051630 56 7 2.6 2.6 0.00 0.02 0.02 10 1011.0
20260507051127 56 57 0.9 0.9 0.00 0.02 0.02 10 1010.7
20260507050624 56 63 0.0 0.9 0.00 0.02 0.02 10 1010.3
20260507050120 57 88 0.0 0.0 0.00 0.02 0.02 10 1010.2
20260507045617 57 76 0.0 0.0 0.00 0.02 0.02 10 1010.7
20260507045114 57 40 1.7 1.7 0.00 0.02 0.02 10 1011.2
20260507044611 57 73 1.7 2.6 0.00 0.02 0.02 10 1011.1
20260507044108 57 42 1.7 1.7 0.00 0.02 0.02 10 1010.7
20260507043603 57 70 0.0 0.0 0.00 0.02 0.02 10 1010.5
20260507043101 57 91 0.9 0.9 0.00 0.02 0.02 10 1010.9
20260507042556 57 107 0.0 0.0 0.00 0.02 0.02 10 1010.8
20260507042052 58 58 0.9 1.7 0.07 0.02 0.02 10 1010.9
20260507041549 59 37 1.7 2.6 0.07 0.02 0.02 10 1011.2
20260507041046 59 57 5.2 6.1 0.05 0.01 0.01 10 1011.2
20260507040543 60 10 4.3 6.1 0.05 0.01 0.01 10 1010.8
20260507040039 60 34 1.7 2.6 0.00 0.00 0.00 10 1010.9
20260507035535 60 89 0.9 0.9 0.00 0.29 0.29 10 1010.8
20260507035032 60 39 2.6 2.6 0.00 0.29 0.29 10 1010.4
20260507034528 60 65 0.9 0.9 0.00 0.29 0.29 10 1010.2
20260507034026 60 43 0.0 0.9 0.00 0.29 0.29 10 1010.4
20260507033524 60 65 0.9 1.7 0.00 0.29 0.29 10 1010.4
20260507033021 61 54 2.6 2.6 0.00 0.29 0.29 10 1010.5
20260507032518 61 37 0.9 0.9 0.00 0.29 0.29 10 1010.3
20260507032014 61 114 0.9 0.9 0.00 0.29 0.29 10 1010.4
20260507031510 62 71 2.6 4.3 0.00 0.29 0.29 10 1010.6
20260507031008 62 346 2.6 4.3 0.00 0.29 0.29 10 1010.7
20260507030505 62 9 6.1 7.8 0.00 0.29 0.29 10 1010.4
20260507030002 62 359 6.1 7.0 0.00 0.29 0.29 10 1010.1
20260507025459 62 7 2.6 4.3 0.00 0.29 0.29 10 1009.9
20260507024957 62 62 3.5 5.2 0.00 0.29 0.29 10 1009.7
20260507024454 63 85 0.9 0.9 0.00 0.29 0.29 10 1009.3
20260507023950 63 4 4.3 5.2 0.00 0.29 0.29 10 1009.9
20260507023447 63 81 0.9 0.9 0.00 0.29 0.29 10 1010.2
20260507022944 63 64 3.5 5.2 0.00 0.29 0.29 10 1009.7
20260507022441 63 94 0.9 1.7 0.00 0.29 0.29 10 1009.6
20260507021936 63 63 1.7 1.7 0.00 0.29 0.29 10 1009.7
20260507021431 64 27 3.5 4.3 0.00 0.29 0.29 10 1009.7
20260507020930 64 357 4.3 5.2 0.00 0.29 0.29 10 1009.7
20260507020426 64 61 2.6 2.6 0.00 0.29 0.29 10 1009.8
20260507015923 64 103 0.9 0.9 0.00 0.29 0.29 10 1009.5
20260507015421 64 25 0.9 1.7 0.00 0.29 0.29 10 1009.6
20260507014918 65 62 0.9 1.7 0.00 0.29 0.29 10 1009.4
20260507014415 65 58 0.9 2.6 0.00 0.29 0.29 10 1009.1
20260507013911 65 85 0.9 0.9 0.00 0.29 0.29 10 1009.1
20260507013408 64 15 4.3 5.2 0.00 0.29 0.29 10 1009.2
20260507012906 64 88 0.0 0.9 0.00 0.29 0.29 10 1009.7
20260507012402 64 80 0.0 0.0 0.00 0.29 0.29 10 1009.5
20260507011859 64 85 0.0 0.0 0.00 0.29 0.29 10 1009.7
20260507011356 64 101 0.0 0.0 0.00 0.29 0.29 10 1009.6
20260507010855 64 60 0.9 1.7 0.00 0.29 0.29 10 1009.8
20260507010351 64 217 1.7 4.3 0.00 0.29 0.29 10 1009.4
20260507005849 65 7 0.9 1.7 0.00 0.29 0.29 10 1009.6
20260507005345 65 58 0.9 1.7 0.00 0.29 0.29 10 1009.6
20260507004842 66 101 0.0 0.0 0.00 0.29 0.29 10 1009.2
20260507004339 66 111 0.0 0.0 0.00 0.29 0.29 10 1009.5
20260507003836 66 110 0.0 0.0 0.00 0.29 0.29 10 1009.4
20260507003332 66 110 0.0 0.0 0.00 0.29 0.29 10 1009.3
20260507002826 66 111 0.0 0.0 0.00 0.29 0.29 10 1009.2
20260507002323 66 110 0.0 0.0 0.00 0.29 0.29 10 1009.0
20260507001821 66 110 0.0 0.0 0.00 0.29 0.29 10 1009.1
20260507001318 66 110 0.0 0.0 0.00 0.29 0.29 10 1008.8
20260507000814 66 112 0.0 0.0 0.07 0.29 0.29 10 1009.0
20260507000309 67 112 0.0 0.0 0.12 0.29 0.29 10 1008.7
20260506235806 67 112 0.0 0.0 0.05 0.28 0.28 10 1008.9
20260506235306 68 112 0.0 0.0 0.00 0.27 0.27 10 1008.9
20260506234753 68 116 0.0 0.0 0.00 0.27 0.27 10 1008.7
20260506234250 69 117 0.0 0.0 0.00 0.27 0.27 10 1008.9
20260506233743 69 115 0.0 0.0 0.00 0.27 0.27 10 1008.7
20260506233239 69 126 0.0 0.0 0.00 0.27 0.27 10 1008.5
20260506232735 69 141 0.0 0.0 0.00 0.27 0.27 10 1008.2
20260506232230 69 135 0.0 0.0 0.00 0.27 0.27 10 1008.3
20260506231728 69 121 0.0 0.0 0.00 0.27 0.27 10 1008.4
20260506231226 69 134 0.0 0.0 0.00 0.27 0.27 10 1008.2
20260506230723 69 153 0.0 0.0 0.00 0.27 0.27 10 1008.1
20260506230219 69 124 0.0 0.0 0.00 0.27 0.27 10 1008.0
20260506225716 69 125 0.0 0.0 0.00 0.27 0.27 10 1008.3
20260506225213 69 121 0.0 0.0 0.00 0.27 0.27 10 1008.0
20260506224709 69 154 0.9 0.9 0.00 0.27 0.27 10 1007.9
20260506224207 69 151 0.9 0.9 0.00 0.27 0.27 10 1008.2
20260506223703 69 172 0.9 1.7 0.00 0.27 0.27 10 1008.1
20260506223158 69 146 0.9 1.7 0.00 0.27 0.27 10 1008.0
20260506222656 69 112 0.9 0.9 0.00 0.27 0.27 10 1008.1
20260506222151 69 169 1.7 1.7 0.00 0.27 0.27 10 1008.1
20260506221650 69 152 1.7 2.6 0.00 0.27 0.27 10 1008.2
20260506221147 69 185 1.7 1.7 0.00 0.27 0.27 10 1008.0
20260506220644 70 123 0.9 0.9 0.00 0.27 0.27 10 1007.9
20260506220139 70 214 0.9 1.7 0.00 0.27 0.27 10 1007.9
20260506215636 70 162 2.6 2.6 0.00 0.27 0.27 10 1007.6
20260506215131 70 128 0.9 0.9 0.00 0.27 0.27 10 1007.7
20260506214628 70 222 1.7 1.7 0.00 0.27 0.27 10 1007.8
20260506214126 70 305 0.0 0.0 0.00 0.27 0.27 10 1007.9
20260506213624 70 156 1.7 1.7 0.00 0.27 0.27 10 1007.9
20260506213121 69 170 0.0 0.9 0.00 0.27 0.27 10 1008.0
20260506212618 70 215 1.7 1.7 0.00 0.27 0.27 10 1008.1
20260506212113 70 198 2.6 2.6 0.00 0.27 0.27 10 1008.0
20260506211608 70 179 0.9 1.7 0.00 0.27 0.27 10 1007.8
20260506211106 69 174 2.6 4.3 0.00 0.27 0.27 10 1007.8
20260506210603 70 202 2.6 2.6 0.00 0.27 0.27 10 1008.0
20260506210059 71 221 3.5 4.3 0.00 0.27 0.27 10 1007.7
20260506205556 71 204 0.0 0.9 0.00 0.27 0.27 10 1007.7
20260506205051 71 177 2.6 2.6 0.00 0.27 0.27 10 1007.4
20260506204549 70 161 3.5 4.3 0.00 0.27 0.27 10 1007.3
20260506204046 70 195 2.6 2.6 0.00 0.27 0.27 10 1007.1
20260506203544 69 178 1.7 1.7 0.00 0.27 0.27 10 1007.3
20260506203040 69 173 2.6 2.6 0.00 0.27 0.27 10 1007.7
20260506202538 69 214 2.6 2.6 0.00 0.27 0.27 10 1007.6
20260506202034 69 153 2.6 2.6 0.00 0.27 0.27 10 1007.4
20260506201532 69 147 1.7 1.7 0.00 0.27 0.27 10 1007.8
20260506201028 69 156 0.9 0.9 0.00 0.27 0.27 10 1007.7
20260506200524 69 87 2.6 2.6 0.00 0.27 0.27 10 1007.6
20260506200021 69 197 4.3 5.2 0.00 0.27 0.27 10 1007.7
20260506195518 69 157 2.6 4.3 0.00 0.27 0.27 10 1007.7
20260506195014 69 202 2.6 2.6 0.00 0.27 0.27 10 1007.7
20260506194512 69 160 0.9 1.7 0.00 0.27 0.27 10 1007.7
20260506194009 69 227 3.5 4.3 0.00 0.27 0.27 10 1007.8
20260506193506 68 125 2.6 4.3 0.00 0.27 0.27 10 1007.8
20260506193003 68 200 1.7 1.7 0.00 0.27 0.27 10 1007.9
20260506192500 69 181 1.7 2.6 0.00 0.27 0.27 10 1007.7
20260506191955 68 227 0.9 1.7 0.00 0.27 0.27 10 1007.9
20260506191453 69 234 6.1 7.8 0.00 0.27 0.27 10 1008.0
20260506190949 67 164 3.5 4.3 0.00 0.27 0.27 10 1007.9
20260506190446 67 195 5.2 7.0 0.00 0.27 0.27 10 1007.8
20260506185942 67 179 1.7 2.6 0.00 0.27 0.27 10 1008.0
20260506185440 67 223 1.7 5.2 0.00 0.27 0.27 10 1008.2
20260506184937 67 196 3.5 4.3 0.00 0.27 0.27 10 1008.1
20260506184433 66 119 1.7 1.7 0.00 0.27 0.27 10 1008.1
20260506183931 66 210 0.9 1.7 0.00 0.27 0.27 10 1008.5
20260506183426 66 215 4.3 5.2 0.00 0.27 0.27 10 1008.5
20260506182924 66 203 2.6 4.3 0.00 0.27 0.27 10 1008.4
20260506182421 66 111 2.6 4.3 0.00 0.27 0.27 10 1008.4
20260506181918 66 187 4.3 7.8 0.00 0.27 0.27 10 1008.4
20260506181416 65 164 2.6 2.6 0.00 0.27 0.27 10 1008.6
20260506180912 65 183 3.5 4.3 0.00 0.27 0.27 10 1008.8
20260506180409 66 165 2.6 4.3 0.00 0.27 0.27 10 1008.5
20260506175906 66 200 4.3 7.8 0.00 0.27 0.27 10 1008.5
20260506175402 65 204 1.7 2.6 0.00 0.27 0.27 10 1008.7
20260506174859 66 250 1.7 4.3 0.00 0.27 0.27 10 1008.6
20260506174357 66 219 2.6 4.3 0.00 0.27 0.27 10 1008.6
20260506173854 65 208 1.7 2.6 0.00 0.27 0.27 10 1008.8
20260506173350 65 154 3.5 5.2 0.00 0.27 0.27 10 1008.9
20260506172848 65 216 3.5 4.3 0.00 0.27 0.27 10 1008.8
20260506172344 65 191 2.6 2.6 0.00 0.27 0.27 10 1008.9
20260506171842 64 197 2.6 2.6 0.00 0.27 0.27 10 1008.8
20260506171339 64 226 3.5 4.3 0.00 0.27 0.27 10 1009.0
20260506170836 64 212 3.5 4.3 0.00 0.27 0.27 10 1008.8
20260506170332 64 200 2.6 4.3 0.00 0.27 0.27 10 1009.0
20260506165832 64 217 2.6 4.3 0.00 0.27 0.27 10 1009.1
20260506165329 64 215 2.6 4.3 0.00 0.27 0.27 10 1008.9
20260506164825 64 187 1.7 1.7 0.00 0.27 0.27 10 1009.0
20260506164322 64 210 4.3 7.0 0.00 0.27 0.27 10 1008.8
20260506163819 63 221 2.6 2.6 0.00 0.27 0.27 10 1008.9
20260506163314 63 189 1.7 1.7 0.00 0.27 0.27 10 1009.0
20260506162809 63 202 6.1 6.1 0.00 0.27 0.27 10 1009.1